Weather History for Great Bend, KS

Change the Weather History Date:

Tuesday, January 17, 2012

  Actual Average Record
Temperature  
Mean Temperature 20 °F -  
Max Temperature 26 °F 42 °F - (-1)
Min Temperature 14 °F 20 °F - (-1)
Degree Days  
Heating Degree Days 45    
Moisture  
Dew Point 7 °F    
Average Humidity 59    
Maximum Humidity 73    
Minimum Humidity 43    
Precipitation  
Precipitation 0.00 in - - ()
Sea Level Pressure  
Sea Level Pressure 30.25 in    
Wind  
Wind Speed 18 mph (NNW)    
Max Wind Speed 25 mph    
Max Gust Speed 33 mph    
Visibility 10 miles    
Events      
Averages and records for this station are not official NWS values.
T = Trace of Precipitation, MM = Missing Value Source: NWS Daily Summary

Daily Weather History Graph

Daily Weather History Graph

Search for Another Location

Airport:

Trip Planner

Search our weather history database for the weather conditions in past years. The results will help you decide how hot, cold, wet, or windy it might be!

Date:

Astronomy

Jan. 17, 2012 Rise Set
Actual Time 7:50 AM CST 5:40 PM CST
Civil Twilight 7:21 AM CST 6:09 PM CST
Nautical Twilight 6:49 AM CST 6:41 PM CST
Astronomical Twilight 6:17 AM CST 7:13 PM CST
Moon 2:12 AM CST (1/17) 12:34 PM CST (1/17)
Length of Visible Light 10h 47m
Length of Day
9h 50m
Waning Crescent, 35% of the Moon is Illuminated
Jan 17
Waning Crescent
Jan 23
New
Jan 30
First Quarter
Feb 7
Full
Feb 14
Last Quarter

Hourly Weather History & Observations

Time (CST) Temp. Windchill Dew Point Humidity Pressure Visibility Wind Dir Wind Speed Gust Speed Precip Events Conditions
12:15 AM 21.2 °F 4.5 °F 12.2 °F 68% 29.98 in 10.0 mi North 24.2 mph - N/A   Scattered Clouds
12:35 AM 21.2 °F 4.5 °F 10.4 °F 63% 29.99 in 10.0 mi North 24.2 mph 33.4 mph N/A   Mostly Cloudy
12:55 AM 21.2 °F 4.2 °F 10.4 °F 63% 30.01 in 10.0 mi North 25.3 mph 31.1 mph N/A   Overcast
1:15 AM 19.4 °F 4.5 °F 10.4 °F 68% 30.02 in 10.0 mi NNW 17.3 mph - N/A   Scattered Clouds
1:35 AM 19.4 °F 5.0 °F 8.6 °F 63% 30.04 in 10.0 mi NNW 16.1 mph 31.1 mph N/A   Clear
1:55 AM 19.4 °F 4.5 °F 8.6 °F 63% 30.05 in 10.0 mi NNW 17.3 mph 20.7 mph N/A   Clear
2:15 AM 19.4 °F 3.6 °F 8.6 °F 63% 30.07 in 10.0 mi NNW 19.6 mph 24.2 mph N/A   Partly Cloudy
2:35 AM 19.4 °F 2.8 °F 10.4 °F 68% 30.08 in 10.0 mi NNW 21.9 mph 27.6 mph N/A   Mostly Cloudy
2:55 AM 17.6 °F 0.5 °F 8.6 °F 68% 30.10 in 10.0 mi NNW 21.9 mph 31.1 mph N/A   Mostly Cloudy
3:15 AM 17.6 °F -0.3 °F 8.6 °F 68% 30.10 in 10.0 mi NNW 24.2 mph 27.6 mph N/A   Mostly Cloudy
3:35 AM 17.6 °F 0.9 °F 8.6 °F 68% 30.12 in 10.0 mi NNW 20.7 mph 25.3 mph N/A   Partly Cloudy
3:55 AM 17.6 °F 2.7 °F 8.6 °F 68% 30.13 in 10.0 mi NNW 16.1 mph - N/A   Clear
4:15 AM 15.8 °F 0.9 °F 8.6 °F 73% 30.14 in 10.0 mi NNW 15.0 mph - N/A   Clear
4:35 AM 15.8 °F 0.9 °F 8.6 °F 73% 30.16 in 10.0 mi NNW 15.0 mph 20.7 mph N/A   Clear
4:55 AM 15.8 °F -0.2 °F 8.6 °F 73% 30.16 in 10.0 mi NNW 17.3 mph 21.9 mph N/A   Clear
5:15 AM 15.8 °F -0.6 °F 8.6 °F 73% 30.18 in 10.0 mi NNW 18.4 mph 25.3 mph N/A   Clear
5:35 AM 15.8 °F -1.9 °F 6.8 °F 68% 30.20 in 10.0 mi NNW 21.9 mph 28.8 mph N/A   Clear
5:55 AM 15.8 °F -2.3 °F 5.0 °F 62% 30.21 in 10.0 mi NNW 23.0 mph 27.6 mph N/A   Clear
6:15 AM 15.8 °F -0.6 °F 5.0 °F 62% 30.23 in 10.0 mi NNW 18.4 mph 24.2 mph N/A   Clear
6:35 AM 15.8 °F 1.4 °F 5.0 °F 62% 30.25 in 10.0 mi NNW 13.8 mph 19.6 mph N/A   Clear
6:55 AM 14.0 °F -0.8 °F 5.0 °F 67% 30.26 in 10.0 mi NNW 13.8 mph 21.9 mph N/A   Clear
7:15 AM 14.0 °F -2.0 °F 5.0 °F 67% 30.27 in 10.0 mi NNW 16.1 mph 21.9 mph N/A   Clear
7:35 AM 14.0 °F -1.4 °F 5.0 °F 67% 30.28 in 10.0 mi NNW 15.0 mph 20.7 mph N/A   Clear
7:55 AM 14.0 °F -0.8 °F 5.0 °F 67% 30.30 in 10.0 mi NNW 13.8 mph - N/A   Clear
8:15 AM 14.0 °F -0.8 °F 5.0 °F 67% 30.31 in 10.0 mi NNW 13.8 mph - N/A   Clear
8:35 AM 14.0 °F 0.5 °F 5.0 °F 67% 30.32 in 10.0 mi NNW 11.5 mph - N/A   Clear
8:55 AM 15.8 °F -0.2 °F 3.2 °F 58% 30.34 in 10.0 mi NNW 17.3 mph - N/A   Clear
9:15 AM 15.8 °F -1.1 °F 3.2 °F 58% 30.35 in 10.0 mi NNW 19.6 mph - N/A   Clear
9:35 AM 15.8 °F -0.2 °F 5.0 °F 62% 30.35 in 10.0 mi NNW 17.3 mph - N/A   Clear
9:55 AM 17.6 °F 4.3 °F 5.0 °F 58% 30.36 in 10.0 mi NNW 12.7 mph - N/A   Clear
10:15 AM 17.6 °F 4.3 °F 5.0 °F 58% 30.37 in 10.0 mi NNW 12.7 mph - N/A   Clear
10:35 AM 19.4 °F 6.0 °F 5.0 °F 54% 30.37 in 10.0 mi NNW 13.8 mph - N/A   Clear
10:55 AM 19.4 °F 7.2 °F 6.8 °F 58% 30.38 in 10.0 mi NW 11.5 mph - N/A   Clear
11:15 AM 21.2 °F 8.9 °F 6.8 °F 54% 30.38 in 10.0 mi NNW 12.7 mph 18.4 mph N/A   Clear
11:35 AM 21.2 °F 9.5 °F 6.8 °F 54% 30.38 in 10.0 mi NW 11.5 mph - N/A   Clear
11:55 AM 23.0 °F 10.1 °F 6.8 °F 50% 30.36 in 10.0 mi NW 15.0 mph - N/A   Clear
12:15 PM 24.8 °F 12.9 °F 8.6 °F 50% 30.35 in 10.0 mi NNW 13.8 mph - N/A   Clear
12:35 PM 24.8 °F 12.4 °F 6.8 °F 46% 30.35 in 10.0 mi NNW 15.0 mph - N/A   Clear
12:55 PM 24.8 °F 12.9 °F 8.6 °F 50% 30.34 in 10.0 mi NNW 13.8 mph 17.3 mph N/A   Clear
1:55 PM 26.6 °F 14.3 °F 8.6 °F 47% 30.32 in 10.0 mi NNW 16.1 mph - N/A   Clear
2:15 PM 26.6 °F 15.2 °F 8.6 °F 47% 30.33 in 10.0 mi NNW 13.8 mph 17.3 mph N/A   Clear
2:35 PM 26.6 °F 15.7 °F 8.6 °F 47% 30.33 in 10.0 mi NW 12.7 mph - N/A   Clear
2:55 PM 26.6 °F 17.5 °F 6.8 °F 43% 30.33 in 10.0 mi NW 9.2 mph 19.6 mph N/A   Clear
3:15 PM 26.6 °F 16.2 °F 8.6 °F 47% 30.34 in 10.0 mi NNW 11.5 mph - N/A   Clear
3:35 PM 26.6 °F 15.2 °F 8.6 °F 47% 30.33 in 10.0 mi North 13.8 mph - N/A   Clear
3:55 PM 26.6 °F 16.2 °F 8.6 °F 47% 30.34 in 10.0 mi NW 11.5 mph - N/A   Clear
4:15 PM 26.6 °F 15.7 °F 8.6 °F 47% 30.33 in 10.0 mi North 12.7 mph 16.1 mph N/A   Clear
4:35 PM 26.6 °F 16.8 °F 8.6 °F 47% 30.33 in 10.0 mi NNW 10.4 mph - N/A   Clear
4:55 PM 26.6 °F 18.2 °F 8.6 °F 47% 30.33 in 10.0 mi North 8.1 mph - N/A   Clear
5:15 PM 26.6 °F 19.1 °F 8.6 °F 47% 30.33 in 10.0 mi NNW 6.9 mph - N/A   Clear
5:35 PM 24.8 °F 19.1 °F 6.8 °F 46% 30.33 in 10.0 mi North 4.6 mph - N/A   Clear
5:55 PM 23.0 °F 18.4 °F 6.8 °F 50% 30.33 in 10.0 mi North 3.5 mph - N/A   Clear
6:15 PM 23.0 °F - 6.8 °F 50% 30.33 in 10.0 mi Calm Calm - N/A   Clear
6:35 PM 19.4 °F - 6.8 °F 58% 30.33 in 10.0 mi Calm Calm - N/A   Clear
6:55 PM 19.4 °F - 6.8 °F 58% 30.34 in 10.0 mi Calm Calm - N/A   Clear
7:15 PM 17.6 °F - 6.8 °F 63% 30.34 in 10.0 mi Calm Calm - N/A   Clear
7:35 PM 17.6 °F - 6.8 °F 63% 30.34 in 10.0 mi Calm Calm - N/A   Clear
7:55 PM 15.8 °F - 5.0 °F 62% 30.33 in 10.0 mi Calm Calm - N/A   Clear
8:15 PM 14.0 °F - 6.8 °F 73% 30.33 in 10.0 mi Calm Calm - N/A   Clear
8:35 PM 14.0 °F - 5.0 °F 67% 30.33 in 10.0 mi Calm Calm - N/A   Clear
8:55 PM 15.8 °F 10.2 °F 6.8 °F 68% 30.33 in 10.0 mi WSW 3.5 mph - N/A   Clear
9:15 PM 14.0 °F - 6.8 °F 73% 30.33 in 10.0 mi Calm Calm - N/A   Clear
9:35 PM 12.2 °F 2.9 °F 3.2 °F 67% 30.33 in 10.0 mi SW 5.8 mph - N/A   Clear
9:55 PM 12.2 °F 1.7 °F 6.8 °F 79% 30.32 in 10.0 mi SSW 6.9 mph - N/A   Clear
10:15 PM 14.0 °F 5.1 °F 3.2 °F 62% 30.32 in 10.0 mi SSW 5.8 mph - N/A   Clear
10:35 PM 15.8 °F 10.2 °F 5.0 °F 62% 30.31 in 10.0 mi SSW 3.5 mph - N/A   Clear
10:55 PM 14.0 °F 5.1 °F 5.0 °F 67% 30.31 in 10.0 mi SSW 5.8 mph - N/A   Clear
11:15 PM 14.0 °F 6.5 °F 6.8 °F 73% 30.30 in 10.0 mi South 4.6 mph - N/A   Clear
11:35 PM 14.0 °F 2.0 °F 5.0 °F 67% 30.30 in 10.0 mi South 9.2 mph - N/A   Clear
11:55 PM 12.2 °F 1.7 °F 5.0 °F 73% 30.29 in 10.0 mi South 6.9 mph - N/A   Clear